FW1206 Weather Reports


time (UTC)temp
C
wind
direction
speed
KPH
gust
KPH
rain 1hr
cm
rain 24hr
cm
rain mn
cm
humidity
%
barometer
mb
20260504190018 22 122 0.0 4.8 0.00 0.00 0.00 51 1011.7
20260504184518 21 168 4.8 9.7 0.00 0.00 0.00 52 1011.8
20260504183018 22 203 0.0 8.0 0.00 0.00 0.00 51 1011.9
20260504181517 22 216 1.6 6.4 0.00 0.00 0.00 50 1011.8
20260504180016 22 198 0.0 8.0 0.00 0.00 0.00 53 1011.8
20260504174514 22 17 0.0 6.4 0.00 0.00 0.00 51 1011.9
20260504173012 22 297 0.0 4.8 0.00 0.00 0.00 55 1012.0
20260504171531 21 269 0.0 4.8 0.00 0.00 0.00 56 1012.1
20260504081505 17 263 0.0 0.0 0.00 0.00 0.00 59 1010.3
20260504044544 18 198 0.0 0.0 0.00 0.00 0.00 53 1011.0
20260504043043 18 198 0.0 0.0 0.00 0.00 0.00 54 1011.1
20260504041545 18 198 0.0 0.0 0.00 0.00 0.00 54 1011.0
20260504040041 19 198 0.0 0.0 0.00 0.00 0.00 52 1011.0
20260504034551 18 198 0.0 0.0 0.00 0.00 0.00 53 1011.0
20260504033042 18 198 0.0 0.0 0.00 0.00 0.00 53 1011.0
20260504031541 18 198 0.0 0.0 0.00 0.00 0.00 54 1011.1
20260504030043 20 198 0.0 0.0 0.00 0.00 0.00 53 1011.1
20260504024539 21 198 0.0 1.6 0.00 0.00 0.00 52 1011.1
20260504023038 21 188 0.0 3.2 0.00 0.00 0.00 49 1011.0
20260504021537 22 212 0.0 4.8 0.00 0.00 0.00 49 1011.2
20260504020037 22 165 0.0 4.8 0.00 0.00 0.00 49 1011.3
20260504014541 23 197 0.0 4.8 0.00 0.00 0.00 48 1011.2
20260504013033 25 212 0.0 1.6 0.00 0.00 0.00 45 1011.3
20260504011531 25 336 0.0 6.4 0.00 0.00 0.00 38 1011.5
20260504010028 26 351 1.6 9.7 0.00 0.00 0.00 39 1011.6
20260504004526 25 257 0.0 3.2 0.00 0.00 0.00 40 1011.7
20260504003024 25 7 0.0 8.0 0.00 0.00 0.00 41 1011.8
20260504001524 25 324 0.0 4.8 0.00 0.00 0.00 41 1012.0
20260504000020 25 82 1.6 9.7 0.00 0.00 0.00 39 1012.2
20260503234527 25 13 1.6 8.0 0.00 0.00 0.00 41 1012.4
20260503233016 25 31 3.2 11.3 0.00 0.00 0.00 41 1012.4
20260503231515 25 30 3.2 8.0 0.00 0.00 0.00 42 1012.5
20260503230012 24 39 3.2 9.7 0.00 0.00 0.00 47 1012.8
20260503224513 24 34 0.0 11.3 0.00 0.00 0.00 45 1012.9
20260503223008 24 340 1.6 11.3 0.00 0.00 0.00 46 1013.1
20260503221506 23 18 3.2 9.7 0.00 0.00 0.00 45 1013.3
20260503220019 23 18 0.0 14.5 0.00 0.00 0.00 46 1013.4
20260503214502 23 37 1.6 14.5 0.00 0.00 0.00 48 1013.5
20260503213111 22 358 4.8 16.1 0.00 0.00 0.00 47 1013.6
20260503211558 23 11 3.2 11.3 0.00 0.00 0.00 49 1013.7
20260503204554 22 8 3.2 14.5 0.00 0.00 0.00 49 1014.2
20260503203055 22 20 4.8 14.5 0.00 0.00 0.00 51 1014.5
20260503201548 22 22 4.8 14.5 0.00 0.00 0.00 52 1014.8
20260503200050 22 346 1.6 8.0 0.00 0.00 0.00 54 1015.0
20260503194545 22 38 3.2 9.7 0.00 0.00 0.00 53 1015.0
20260503193049 21 31 3.2 11.3 0.00 0.00 0.00 52 1015.1
20260503191543 22 340 3.2 9.7 0.00 0.00 0.00 54 1015.2